OE5RBO Weather Reports


Display with metric or nautical units.
time (UTC)temp
F
wind
direction
speed
MPH
gust
MPH
rain 1hr
in
rain 24hr
in
rain mn
in
humidity
%
barometer
mb
20260902133407 80 288 2.0 7.0 0.00 0.00 0.00 56 1020.3
20260902132407 80 288 2.0 8.0 0.00 0.00 0.00 55 1020.4
20260902131406 79 228 1.0 7.0 0.00 0.00 0.00 57 1020.5
20260902130406 80 288 1.0 6.0 0.00 0.00 0.00 55 1020.5
20260902124405 80 217 1.0 8.0 0.00 0.00 0.00 55 1020.7
20260902123405 79 73 0.0 3.0 0.00 0.00 0.00 58 1020.7
20260902122404 79 162 0.0 2.0 0.00 0.00 0.00 55 1020.8
20260902121404 78 252 2.0 9.0 0.00 0.00 0.00 57 1020.8
20260902120404 77 288 2.0 7.0 0.00 0.00 0.00 61 1021.0
20260902115403 78 217 1.0 4.0 0.00 0.00 0.00 58 1020.9
20260902114403 79 288 1.0 6.0 0.00 0.00 0.00 57 1021.0
20260902113402 79 194 0.0 3.0 0.00 0.00 0.00 55 1021.0
20260902112402 78 342 2.0 5.0 0.00 0.00 0.00 55 1021.0
20260902110401 81 288 1.0 4.0 0.00 0.00 0.00 53 1021.3
20260902105401 80 356 0.0 1.0 0.00 0.00 0.00 53 1021.4
20260902104400 79 288 1.0 5.0 0.00 0.00 0.00 55 1021.4
20260902103400 78 200 0.0 2.0 0.00 0.00 0.00 58 1021.4
20260902102400 77 226 2.0 10.0 0.00 0.00 0.00 59 1021.4
20260902101359 78 117 3.0 5.0 0.00 0.00 0.00 58 1021.4
20260902100359 78 204 2.0 4.0 0.00 0.00 0.00 60 1021.7
20260902095359 78 288 1.0 3.0 0.00 0.00 0.00 58 1021.7
20260902094358 78 177 2.0 3.0 0.00 0.00 0.00 61 1021.6
20260902093358 79 204 2.0 8.0 0.00 0.00 0.00 61 1021.6
20260902092357 79 224 1.0 3.0 0.00 0.00 0.00 60 1021.6
20260902091357 80 201 1.0 4.0 0.00 0.00 0.00 57 1021.7
20260902090357 79 169 0.0 3.0 0.00 0.00 0.00 58 1021.7
20260902085356 78 0 0.0 0.0 0.00 0.00 0.00 62 1021.9
20260902084356 78 205 1.0 3.0 0.00 0.00 0.00 62 1021.9
20260902083356 76 200 1.0 3.0 0.00 0.00 0.00 65 1021.9
20260902082355 76 203 0.0 2.0 0.00 0.00 0.00 67 1021.7
20260902081355 76 160 0.0 2.0 0.00 0.00 0.00 66 1021.4
20260902080355 75 145 0.0 1.0 0.00 0.00 0.00 68 1021.7
20260902074354 74 159 0.0 3.0 0.00 0.00 0.00 67 1021.7
20260902072353 74 165 1.0 4.0 0.00 0.00 0.00 68 1021.6
20260902071353 72 163 1.0 3.0 0.00 0.00 0.00 71 1021.9
20260902070352 73 0 0.0 0.0 0.00 0.00 0.00 73 1022.0
20260902064352 67 162 0.0 1.0 0.00 0.00 0.00 84 1021.9
20260902063352 65 203 0.0 1.0 0.00 0.00 0.00 87 1022.0
20260902062351 64 0 0.0 0.0 0.00 0.00 0.00 91 1022.0
20260902061351 62 0 0.0 0.0 0.00 0.00 0.00 96 1022.1
20260902055350 55 0 0.0 0.0 0.00 0.00 0.00 99 1022.1
20260902054350 54 0 0.0 0.0 0.00 0.00 0.00 99 1022.0
20260902053349 54 0 0.0 0.0 0.00 0.00 0.00 99 1021.9
20260902052349 54 0 0.0 0.0 0.00 0.00 0.00 99 1021.8
20260902051349 53 0 0.0 0.0 0.00 0.00 0.00 99 1021.6
20260902050348 53 0 0.0 0.0 0.00 0.00 0.00 99 1021.7
20260902045348 53 0 0.0 0.0 0.00 0.00 0.00 99 1021.7
20260902044347 53 0 0.0 0.0 0.00 0.00 0.00 99 1021.3
20260902042347 54 0 0.0 0.0 0.00 0.00 0.00 99 1021.2
20260902041346 54 0 0.0 0.0 0.00 0.00 0.00 99 1021.2
20260902040346 54 0 0.0 0.0 0.00 0.00 0.00 99 1021.4
20260902035346 54 31 2.0 4.0 0.00 0.00 0.00 99 1021.6
20260902034345 54 0 0.0 0.0 0.00 0.00 0.00 99 1021.4
20260902033345 55 0 0.0 0.0 0.00 0.00 0.00 98 1021.2
20260902031344 55 0 0.0 0.0 0.00 0.00 0.00 98 1021.7
20260902030344 56 0 0.0 0.0 0.00 0.00 0.00 98 1021.7
20260902025344 55 0 0.0 0.0 0.00 0.00 0.00 98 1021.8
20260902024343 55 0 0.0 0.0 0.00 0.00 0.00 98 1021.9
20260902023343 56 0 0.0 0.0 0.00 0.00 0.00 98 1021.8
20260902021342 56 0 0.0 0.0 0.00 0.00 0.00 97 1021.9
20260902020342 56 0 0.0 0.0 0.00 0.00 0.00 97 1021.9
20260902015341 56 0 0.0 0.0 0.00 0.00 0.00 97 1021.7
20260902014341 57 35 1.0 3.0 0.00 0.00 0.00 96 1021.9
20260902012340 59 0 0.0 0.0 0.00 0.00 0.00 95 1021.8
20260902011340 57 149 1.0 5.0 0.00 0.00 0.00 97 1021.9
20260902010340 56 0 0.0 0.0 0.00 0.00 0.00 97 1022.0
20260902005340 56 0 0.0 0.0 0.00 0.00 0.00 97 1022.0
20260902003338 57 0 0.0 0.0 0.00 0.00 0.00 97 1022.1
20260902002338 57 0 0.0 0.0 0.00 0.00 0.00 97 1022.2
20260902001338 57 0 0.0 0.0 0.00 0.00 0.00 97 1022.1
20260902000337 57 0 0.0 0.0 0.00 0.00 0.00 96 1022.1
20260901234337 58 0 0.0 0.0 0.00 0.00 0.00 96 1021.9
20260901233336 58 0 0.0 0.0 0.00 0.00 0.00 96 1022.0
20260901232336 58 0 0.0 0.0 0.00 0.00 0.00 96 1022.0
20260901231336 58 0 0.0 0.0 0.00 0.00 0.00 96 1022.2
20260901225335 58 0 0.0 0.0 0.00 0.00 0.00 96 1022.3
20260901224334 59 335 0.0 1.0 0.00 0.00 0.00 95 1022.3
20260901223334 59 0 0.0 0.0 0.00 0.00 0.00 95 1022.2
20260901222334 59 0 0.0 0.0 0.00 0.00 0.00 95 1022.2
20260901221333 59 0 0.0 0.0 0.00 0.00 0.00 95 1022.2
20260901214332 60 0 0.0 0.0 0.00 0.00 0.00 94 1022.2
20260901213332 60 0 0.0 0.0 0.00 0.00 0.00 94 1022.2
20260901212332 60 197 0.0 2.0 0.00 0.00 0.00 94 1022.1
20260901211331 61 25 2.0 4.0 0.00 0.00 0.00 93 1022.2
20260901210331 61 211 1.0 2.0 0.00 0.00 0.00 93 1022.2
20260901205330 61 0 0.0 0.0 0.00 0.00 0.00 92 1022.1
20260901204330 61 0 0.0 0.0 0.00 0.00 0.00 91 1022.1
20260901203329 61 0 0.0 0.0 0.00 0.00 0.00 91 1021.9
20260901202329 61 0 0.0 0.0 0.00 0.00 0.00 90 1021.9
20260901201329 62 0 0.0 0.0 0.00 0.00 0.00 89 1022.0
20260901200328 62 0 0.0 0.0 0.00 0.00 0.00 88 1021.9
20260901195328 63 0 0.0 0.0 0.00 0.00 0.00 87 1021.8
20260901194328 64 0 0.0 0.0 0.00 0.00 0.00 85 1021.8
20260901193327 64 0 0.0 0.0 0.00 0.00 0.00 84 1021.7
20260901191327 65 0 0.0 0.0 0.00 0.00 0.00 79 1021.4
20260901185326 66 0 0.0 0.0 0.00 0.00 0.00 78 1021.3
20260901184325 67 0 0.0 0.0 0.00 0.00 0.00 76 1021.3
20260901183325 67 41 0.0 2.0 0.00 0.00 0.00 75 1021.1
20260901182325 68 52 2.0 4.0 0.00 0.00 0.00 74 1020.9
20260901181324 69 41 3.0 5.0 0.00 0.00 0.00 72 1020.8
20260901180324 69 34 3.0 5.0 0.00 0.00 0.00 71 1020.8
20260901175323 70 48 3.0 4.0 0.00 0.00 0.00 70 1020.8
20260901174323 71 63 3.0 4.0 0.00 0.00 0.00 68 1020.6
20260901172323 75 52 1.0 2.0 0.00 0.00 0.00 63 1020.7
20260901171322 76 45 1.0 3.0 0.00 0.00 0.00 61 1020.6
20260901170322 77 336 1.0 4.0 0.00 0.00 0.00 59 1020.6
20260901165322 77 328 1.0 4.0 0.00 0.00 0.00 58 1020.6
20260901164321 77 343 2.0 5.0 0.00 0.00 0.00 55 1020.6
20260901163321 78 332 2.0 4.0 0.00 0.00 0.00 51 1020.5
20260901162320 77 336 3.0 7.0 0.00 0.00 0.00 55 1020.6
20260901161320 78 288 2.0 5.0 0.00 0.00 0.00 53 1020.6
20260901160320 80 288 1.0 4.0 0.00 0.00 0.00 51 1020.6
20260901155319 81 208 0.0 2.0 0.00 0.00 0.00 49 1020.7
20260901154319 80 198 0.0 1.0 0.00 0.00 0.00 49 1020.7
20260901153319 80 225 2.0 10.0 0.00 0.00 0.00 51 1020.8
20260901152318 80 288 1.0 6.0 0.00 0.00 0.00 49 1020.7
20260901151318 79 158 1.0 3.0 0.00 0.00 0.00 52 1020.8
20260901150318 78 203 3.0 8.0 0.00 0.00 0.00 52 1020.9
20260901145317 80 224 2.0 4.0 0.00 0.00 0.00 51 1020.8
20260901144317 80 288 1.0 6.0 0.00 0.00 0.00 51 1020.8
20260901143316 80 288 2.0 7.0 0.00 0.00 0.00 51 1020.9
20260901142316 81 340 1.0 4.0 0.00 0.00 0.00 48 1020.9
20260901141316 81 240 1.0 6.0 0.00 0.00 0.00 49 1020.9
20260901135315 79 288 1.0 7.0 0.00 0.00 0.00 52 1021.2
20260901134315 77 218 4.0 8.0 0.00 0.00 0.00 57 1021.3